Starlink 31443

operational
NORAD ID: 59393 Int'l Des: 2024-062 Owner: SPXS Country: US Constellation: starlink
LEOCIRCULAR

关于 Starlink 31443

正在加载描述...

实时位置

正在加载3D地球...

即将过境

高度历史

Altitude vs Time

uPlot chart will show altitude changes over time

两行轨道根数

1 59393U 24062V 25352.05600709 -.00002828 00000-0 -85678-4 0 9997
2 59393 53.1599 261.8319 0001575 97.3768 262.7412 15.29364162 97358
Epoch: Dec 18, 2025 • Age: 16 hours

当前状态

高度 480.5 km
速度 7.63 km/s
星下点 40.59°N, 47.81°E
发射日期 Apr 2, 2024
运行时间 1.7 years
类型 internet

技术详情

分类 Payload
质量 730.00 kg
干质量 700.00 kg
总质量 730.00 kg
长度 0.30 m
直径 4.10 m
跨度 29.00 m
形状 Box + pan
制造商 SPXS
平台类型 Starlink V2M
阶段状态 In Orbit
所有者/国家 SPXS/US

大型星座

Loading constellations...